Volver al catálogo

STARLINK-6326

ActivoComunicacionesVLEO
NORAD 56787·PAYLOAD·🇺🇸 United States

Lanzado May 31, 2023 desde Vandenberg Space Force Base

Loading…

Próximos Pases (próximas 24 horas)

TLE

ActualizadoSource: CelesTrak SupGP

Época: Sep 15, 2026, 02:30 UTC

1 56787C 23078W   26258.10465278  .00648060  00000+0  52898-1 0  2583
2 56787  70.0009 206.7761 0003105 271.4112 261.5645 14.99020856    11

Sigue STARLINK-6326 en tiempo real con AllMySat

Download on the App Store